Weather History for San Antonio, TX

Change the Weather History Date:

Monday, September 16, 2013

  Actual Average Record
Temperature  
Mean Temperature 82 °F 80 °F  
Max Temperature 88 °F 90 °F 99 °F (1954)
Min Temperature 75 °F 69 °F 55 °F (1945)
Degree Days  
Heating Degree Days 0 0  
Month to date heating degree days 0 0  
Since 1 July heating degree days 0 0  
Cooling Degree Days 17 15  
Month to date cooling degree days 343 268  
Year to date cooling degree days 2936 2659  
Growing Degree Days 32 (Base 50)    
Moisture  
Dew Point 73 °F    
Average Humidity 74    
Maximum Humidity 88    
Minimum Humidity 59    
Precipitation  
Precipitation 0.27 in 0.10 in 2.54 in (1973)
Month to date precipitation 0.69 1.70  
Year to date precipitation 24.13 22.64  
Snow  
Snow 0.00 in - - ()
Month to date snowfall 0.0  
Since 1 July snowfall 0.0  
Since 1 September snowfall 0.0  
Snow Depth 0.00 in    
Sea Level Pressure  
Sea Level Pressure 29.98 in    
Wind  
Wind Speed 6 mph (ENE)    
Max Wind Speed 29 mph    
Max Gust Speed 35 mph    
Visibility 9 miles    
Events Rain    
T = Trace of Precipitation, MM = Missing Value Source: NWS Daily Summary

Daily Weather History Graph

Daily Weather History Graph

Search for Another Location

Airport:

Trip Planner

Search our weather history database for the weather conditions in past years. The results will help you decide how hot, cold, wet, or windy it might be!

Date:

Astronomy

Sep. 16, 2013 Rise Set
Actual Time 7:19 AM CDT 7:37 PM CDT
Civil Twilight 6:55 AM CDT 8:01 PM CDT
Nautical Twilight 6:27 AM CDT 8:29 PM CDT
Astronomical Twilight 5:59 AM CDT 8:57 PM CDT
Moon 5:39 PM CDT (9/16) 4:18 AM CDT (9/16)
Length of Visible Light 13h 05m
Length of Day
12h 18m
Waxing Gibbous, 90% of the Moon is Illuminated
Sep 16
Waxing Gibbous
Sep 19
Full
Sep 26
Last Quarter
Oct 4
New
Oct 11
First Quarter

Hourly Weather History & Observations

Time (CDT) Temp. Heat Index Dew Point Humidity Pressure Visibility Wind Dir Wind Speed Gust Speed Precip Events Conditions
12:51 AM 80.1 °F 83.6 °F 71.1 °F 74% 29.96 in 10.0 mi ESE 4.6 mph - N/A   Mostly Cloudy
1:51 AM 79.0 °F - 71.1 °F 77% 29.95 in 10.0 mi Calm Calm - N/A   Mostly Cloudy
2:51 AM 78.1 °F - 71.1 °F 79% 29.96 in 10.0 mi NE 3.5 mph - N/A   Mostly Cloudy
3:51 AM 78.1 °F - 71.1 °F 79% 29.95 in 10.0 mi Calm Calm - N/A   Mostly Cloudy
4:15 AM 78.8 °F - 71.6 °F 78% 30.00 in 10.0 mi NE 3.5 mph - N/A   Mostly Cloudy
4:51 AM 78.1 °F - 72.0 °F 81% 29.95 in 10.0 mi NNE 4.6 mph - N/A   Mostly Cloudy
5:51 AM 77.0 °F - 73.0 °F 88% 29.95 in 10.0 mi NE 5.8 mph - N/A   Mostly Cloudy
6:28 AM 77.0 °F - 73.4 °F 89% 30.01 in 10.0 mi NE 6.9 mph - N/A   Mostly Cloudy
6:51 AM 78.1 °F - 73.9 °F 87% 29.95 in 10.0 mi Variable 5.8 mph - N/A   Mostly Cloudy
7:31 AM 78.8 °F - 73.4 °F 83% 30.01 in 9.0 mi NE 8.1 mph - N/A   Mostly Cloudy
7:51 AM 78.1 °F - 73.9 °F 87% 29.97 in 8.0 mi NE 6.9 mph - N/A   Mostly Cloudy
8:51 AM 81.0 °F 86.2 °F 73.9 °F 79% 29.99 in 10.0 mi ENE 10.4 mph - N/A   Mostly Cloudy
9:19 AM 82.4 °F 88.2 °F 73.4 °F 74% 30.05 in 10.0 mi ENE 13.8 mph - N/A   Mostly Cloudy
9:51 AM 84.0 °F 91.2 °F 73.9 °F 72% 29.99 in 10.0 mi ENE 13.8 mph 19.6 mph N/A   Mostly Cloudy
10:51 AM 87.1 °F 93.6 °F 72.0 °F 61% 30.00 in 10.0 mi ENE 16.1 mph 21.9 mph N/A   Mostly Cloudy
11:51 AM 87.1 °F 93.6 °F 72.0 °F 61% 29.99 in 10.0 mi East 13.8 mph - N/A   Mostly Cloudy
12:19 PM 86.0 °F 91.8 °F 71.6 °F 62% 30.05 in 10.0 mi East 13.8 mph 19.6 mph 0.00 in Rain Light Rain
12:35 PM 84.2 °F 92.3 °F 75.2 °F 74% 30.04 in 9.0 mi SE 11.5 mph - 0.00 in Rain Light Rain
12:51 PM 87.1 °F 94.5 °F 73.0 °F 63% 29.99 in 10.0 mi East 12.7 mph - 0.00 in   Mostly Cloudy
1:27 PM 84.2 °F 92.3 °F 75.2 °F 74% 30.04 in 10.0 mi East 10.4 mph - 0.02 in   Mostly Cloudy
1:45 PM 77.0 °F - 73.4 °F 89% 30.06 in 2.0 mi SE 21.9 mph 33.4 mph 0.02 in Rain Light Rain
1:51 PM 75.9 °F - 72.0 °F 87% 30.00 in 1.0 mi ESE 18.4 mph 27.6 mph 0.05 in Rain Heavy Rain
2:03 PM 75.2 °F - 71.6 °F 89% 30.05 in 5.0 mi Calm Calm - 0.17 in Rain Rain
2:51 PM 75.9 °F - 72.0 °F 87% 29.96 in 10.0 mi Calm Calm - 0.21 in Rain Light Rain
3:51 PM 77.0 °F - 73.0 °F 88% 29.95 in 10.0 mi NW 3.5 mph - 0.00 in Rain Light Rain
4:51 PM 79.0 °F - 75.0 °F 88% 29.94 in 10.0 mi NNW 5.8 mph - 0.01 in   Mostly Cloudy
5:51 PM 82.0 °F 88.6 °F 75.0 °F 79% 29.92 in 10.0 mi North 4.6 mph - N/A   Mostly Cloudy
6:51 PM 82.0 °F 87.9 °F 73.9 °F 76% 29.93 in 10.0 mi North 3.5 mph - N/A   Mostly Cloudy
7:09 PM 80.6 °F 85.4 °F 73.4 °F 79% 30.01 in 7.0 mi East 18.4 mph 24.2 mph 0.00 in Rain Light Rain
7:51 PM 75.9 °F - 70.0 °F 82% 29.96 in 10.0 mi Variable 3.5 mph - 0.00 in   Overcast
8:51 PM 75.0 °F - 71.1 °F 87% 29.98 in 10.0 mi Calm Calm - N/A   Overcast
9:51 PM 75.9 °F - 71.1 °F 85% 29.99 in 10.0 mi Calm Calm - 0.00 in   Overcast
10:51 PM 75.0 °F - 72.0 °F 90% 30.00 in 10.0 mi Calm Calm - N/A   Overcast
11:49 PM 75.2 °F - 71.6 °F 89% 30.06 in 10.0 mi Calm Calm - N/A   Overcast
11:51 PM 75.9 °F - 71.1 °F 85% 30.01 in 10.0 mi North 3.5 mph - N/A   Overcast